Weather History for KCUL - December, 2013

Change the Weather History Date:

Tuesday, December 24, 2013

  Actual Average (KEVV) Record (KEVV)
Temperature  
Mean Temperature 19 °F 34 °F  
Max Temperature 24 °F 42 °F 69 °F (1964)
Min Temperature 14 °F 25 °F -10 °F (2004)
Degree Days  
Heating Degree Days 46 31  
Month to date heating degree days 689  
Since 1 July heating degree days 1550  
Cooling Degree Days 0 0  
Month to date cooling degree days 0  
Year to date cooling degree days 1397  
Moisture  
Dew Point 12 °F    
Average Humidity 71    
Maximum Humidity 82    
Minimum Humidity 49    
Precipitation  
Precipitation 0.00 in 0.12 in 1.23 in (1903)
Month to date precipitation 2.99  
Year to date precipitation 44.54  
Snow  
Snow 0.00 in 0.10 in 3.00 in (2010)
Month to date snowfall 2.3  
Since 1 July snowfall 2.6  
Snow Depth -    
Sea Level Pressure  
Sea Level Pressure 30.55 in    
Wind  
Wind Speed 9 mph (North)    
Max Wind Speed 16 mph    
Max Gust Speed 21 mph    
Visibility 10 miles    
Events Snow    
T = Trace of Precipitation, MM = Missing Value Source: NWS Daily Summary

Daily Weather History Graph

Daily Weather History Graph

Search for Another Location

Airport or City:

Trip Planner

Search our weather history database for the weather conditions in past years. The results will help you decide how hot, cold, wet, or windy it might be!

Date:

Astronomy

Dec. 24, 2013 Rise Set
Actual Time 7:06 AM CST 4:37 PM CST
Civil Twilight 6:37 AM CST 5:07 PM CST
Nautical Twilight 6:03 AM CST 5:40 PM CST
Astronomical Twilight 5:31 AM CST 6:12 PM CST
Moon 11:39 PM CST (12/24) 11:06 AM CST (12/24)
Length of Visible Light 10h 30m
Length of Day
9h 31m
Waning Gibbous, 58% of the Moon is Illuminated
Dec 24
Waning Gibbous
Dec 25
Last Quarter
Jan 1
New
Jan 7
First Quarter
Jan 15
Full

Hourly Weather History & Observations

Time (CST) Temp. Windchill Dew Point Humidity Pressure Visibility Wind Dir Wind Speed Gust Speed Precip Events Conditions
12:15 AM 24.1 °F 11.5 °F 17.4 °F 76% 30.52 in 10.0 mi NW 15.0 mph 18.4 mph N/A   Overcast
12:35 AM 23.7 °F 11.5 °F 16.9 °F 75% 30.52 in 10.0 mi NW 13.8 mph - N/A   Overcast
12:55 AM 22.8 °F 10.4 °F 15.6 °F 74% 30.52 in 10.0 mi NW 13.8 mph 19.6 mph N/A   Overcast
1:15 AM 21.7 °F 8.0 °F 15.4 °F 77% 30.53 in 10.0 mi NW 16.1 mph - N/A   Overcast
1:35 AM 20.1 °F 6.9 °F 13.6 °F 76% 30.54 in 10.0 mi NW 13.8 mph - N/A   Mostly Cloudy
1:55 AM 19.2 °F 5.3 °F 12.7 °F 76% 30.54 in 10.0 mi NW 15.0 mph - N/A   Clear
2:15 AM 18.9 °F 4.3 °F 12.9 °F 78% 30.54 in 10.0 mi WNW 16.1 mph 20.7 mph N/A   Clear
2:35 AM 18.0 °F 6.1 °F 11.3 °F 75% 30.55 in 10.0 mi WNW 10.4 mph - N/A   Clear
2:55 AM 17.6 °F 5.0 °F 11.7 °F 78% 30.56 in 10.0 mi WNW 11.5 mph - N/A   Clear
3:15 AM 17.1 °F 4.3 °F 11.5 °F 79% 30.56 in 10.0 mi WNW 11.5 mph - N/A   Clear
3:35 AM 16.7 °F 2.6 °F 10.6 °F 77% 30.57 in 10.0 mi NW 13.8 mph - N/A   Scattered Clouds
3:55 AM 16.5 °F 3.6 °F 10.4 °F 77% 30.57 in 10.0 mi NW 11.5 mph - N/A   Scattered Clouds
4:15 AM 16.3 °F 3.4 °F 10.8 °F 79% 30.57 in 10.0 mi NNW 11.5 mph - N/A   Clear
4:35 AM 16.5 °F 6.0 °F 10.6 °F 77% 30.57 in 10.0 mi NNW 8.1 mph - N/A   Scattered Clouds
4:55 AM 16.3 °F 4.1 °F 10.2 °F 77% 30.58 in 10.0 mi NW 10.4 mph - N/A   Mostly Cloudy
5:15 AM 15.8 °F 5.1 °F 10.0 °F 78% 30.58 in 10.0 mi NW 8.1 mph - N/A   Mostly Cloudy
5:35 AM 15.8 °F 5.1 °F 10.2 °F 79% 30.58 in 10.0 mi NNW 8.1 mph - N/A   Mostly Cloudy
5:55 AM 15.8 °F 5.1 °F 10.4 °F 79% 30.59 in 10.0 mi NNW 8.1 mph - N/A Snow Light Snow
6:15 AM 15.8 °F 4.2 °F 10.4 °F 79% 30.59 in 10.0 mi NW 9.2 mph - N/A   Scattered Clouds
6:35 AM 15.6 °F 5.9 °F 10.9 °F 82% 30.59 in 10.0 mi NW 6.9 mph - N/A   Clear
6:55 AM 15.3 °F 5.4 °F 10.0 °F 80% 30.60 in 10.0 mi NNW 6.9 mph - N/A   Clear
7:15 AM 14.9 °F 4.0 °F 9.9 °F 80% 30.60 in 10.0 mi NNW 8.1 mph - N/A   Clear
7:35 AM 15.4 °F 5.6 °F 10.2 °F 80% 30.61 in 10.0 mi NW 6.9 mph - N/A   Clear
7:55 AM 15.6 °F 7.0 °F 10.4 °F 80% 30.62 in 10.0 mi NNW 5.8 mph - N/A   Clear
8:15 AM 15.6 °F 5.9 °F 10.6 °F 80% 30.64 in 10.0 mi WNW 6.9 mph - N/A   Scattered Clouds
8:35 AM 16.2 °F 9.0 °F 9.0 °F 73% 30.63 in 10.0 mi WNW 4.6 mph - N/A   Scattered Clouds
8:55 AM 16.7 °F 9.6 °F 9.5 °F 73% 30.64 in 10.0 mi WNW 4.6 mph - N/A   Clear
9:15 AM 17.1 °F 8.7 °F 9.1 °F 71% 30.64 in 10.0 mi West 5.8 mph - N/A   Clear
9:35 AM 17.8 °F 10.9 °F 9.1 °F 69% 30.64 in 10.0 mi NW 4.6 mph - N/A   Clear
9:55 AM 18.3 °F 11.5 °F 8.8 °F 66% 30.64 in 10.0 mi NNW 4.6 mph - N/A   Clear
10:15 AM 18.1 °F 7.9 °F 9.1 °F 68% 30.63 in 10.0 mi NNW 8.1 mph - N/A   Clear
10:35 AM 19.2 °F - 8.6 °F 63% 30.64 in 10.0 mi Calm Calm - N/A   Clear
10:55 AM 19.4 °F 12.8 °F 7.9 °F 61% 30.63 in 10.0 mi NNW 4.6 mph - N/A   Clear
11:15 AM 20.7 °F 15.8 °F 9.1 °F 61% 30.63 in 10.0 mi NE 3.5 mph - N/A   Clear
11:35 AM 20.5 °F 15.6 °F 7.9 °F 58% 30.61 in 10.0 mi NNE 3.5 mph - N/A   Clear
11:55 AM 21.4 °F - 7.3 °F 55% 30.61 in 10.0 mi Calm Calm - N/A   Clear
12:15 PM 21.2 °F - 7.2 °F 55% 30.60 in 10.0 mi Calm Calm - N/A   Clear
12:35 PM 22.6 °F - 8.2 °F 54% 30.60 in 10.0 mi Calm Calm - N/A   Clear
12:55 PM 22.1 °F - 6.4 °F 51% 30.59 in 10.0 mi Calm Calm - N/A   Clear
1:15 PM 22.6 °F - 7.5 °F 52% 30.58 in 10.0 mi Calm Calm - N/A   Clear
1:35 PM 23.2 °F 18.7 °F 6.4 °F 49% 30.57 in 10.0 mi East 3.5 mph - N/A   Clear
2:00 PM 23.2 °F - 6.6 °F 49% 30.56 in 10.0 mi Calm Calm - N/A   Clear
2:15 PM 23.5 °F - 8.6 °F 53% 30.57 in 10.0 mi Calm Calm - N/A   Clear
2:35 PM 23.7 °F - 8.4 °F 52% 30.56 in 10.0 mi Calm Calm - N/A   Clear
2:55 PM 23.9 °F - 8.6 °F 52% 30.56 in 10.0 mi Calm Calm - N/A   Clear
3:15 PM 24.6 °F 18.8 °F 10.4 °F 55% 30.55 in 10.0 mi ENE 4.6 mph - N/A   Clear
3:35 PM 24.4 °F 20.1 °F 10.2 °F 55% 30.55 in 10.0 mi SSE 3.5 mph - N/A   Clear
3:55 PM 23.9 °F 18.0 °F 10.4 °F 56% 30.54 in 10.0 mi SSE 4.6 mph - N/A   Clear
4:15 PM 23.9 °F 16.8 °F 10.9 °F 58% 30.54 in 10.0 mi SSE 5.8 mph - N/A   Clear
4:35 PM 23.7 °F 17.8 °F 11.7 °F 60% 30.54 in 10.0 mi South 4.6 mph - N/A   Clear
4:55 PM 23.4 °F 17.4 °F 12.4 °F 63% 30.53 in 10.0 mi SSE 4.6 mph - N/A   Clear
5:15 PM 23.5 °F 15.4 °F 13.8 °F 66% 30.53 in 10.0 mi SSE 6.9 mph - N/A   Clear
5:35 PM 23.7 °F 15.6 °F 14.7 °F 69% 30.53 in 10.0 mi SSE 6.9 mph - N/A   Clear
5:55 PM 23.7 °F 15.6 °F 14.7 °F 69% 30.53 in 10.0 mi SE 6.9 mph - N/A   Clear
6:15 PM 23.4 °F 16.2 °F 16.9 °F 76% 30.52 in 10.0 mi ESE 5.8 mph - N/A   Clear
6:35 PM 23.4 °F 16.2 °F 16.3 °F 75% 30.52 in 10.0 mi ESE 5.8 mph - N/A   Clear
6:55 PM 23.0 °F 15.8 °F 15.8 °F 74% 30.52 in 10.0 mi ESE 5.8 mph - N/A   Clear
7:15 PM 23.4 °F 16.2 °F 16.3 °F 75% 30.52 in 10.0 mi ESE 5.8 mph - N/A   Clear
7:35 PM 23.5 °F 16.4 °F 16.9 °F 76% 30.51 in 10.0 mi ESE 5.8 mph - N/A   Clear
7:55 PM 23.0 °F 15.8 °F 17.2 °F 79% 30.50 in 10.0 mi ESE 5.8 mph - N/A   Clear
8:15 PM 23.0 °F 15.8 °F 17.6 °F 80% 30.49 in 10.0 mi ESE 5.8 mph - N/A   Clear
8:35 PM 23.7 °F 15.6 °F 15.6 °F 71% 30.48 in 10.0 mi ESE 6.9 mph - N/A   Clear
8:55 PM 23.2 °F 16.0 °F 17.2 °F 78% 30.48 in 10.0 mi ESE 5.8 mph - N/A   Clear
9:15 PM 23.4 °F 17.4 °F 17.4 °F 78% 30.48 in 10.0 mi ESE 4.6 mph - N/A   Clear
9:35 PM 23.0 °F 17.0 °F 17.6 °F 80% 30.48 in 10.0 mi SE 4.6 mph - N/A   Clear
9:55 PM 23.4 °F 15.2 °F 17.6 °F 79% 30.47 in 10.0 mi ESE 6.9 mph - N/A   Clear
10:15 PM 23.0 °F 15.8 °F 17.8 °F 80% 30.46 in 10.0 mi SE 5.8 mph - N/A   Clear
10:35 PM 23.0 °F 15.8 °F 18.3 °F 82% 30.45 in 10.0 mi ESE 5.8 mph - N/A   Clear
10:55 PM 23.4 °F 15.2 °F 18.5 °F 82% 30.45 in 10.0 mi SE 6.9 mph - N/A   Clear
11:15 PM 23.5 °F 15.4 °F 18.1 °F 80% 30.45 in 10.0 mi SE 6.9 mph - N/A   Clear
11:35 PM 23.7 °F 15.6 °F 18.7 °F 81% 30.44 in 10.0 mi SE 6.9 mph - N/A   Clear
11:55 PM 23.9 °F 15.0 °F 18.1 °F 79% 30.43 in 10.0 mi SE 8.1 mph - N/A   Clear